Weather History for KJMR - August, 2013

Change the Weather History Date:

Wednesday, August 14, 2013

  Actual Average Record
Temperature  
Mean Temperature 58 °F -  
Max Temperature 73 °F 79 °F 95 °F (1978)
Min Temperature 42 °F 51 °F 38 °F (1977)
Degree Days  
Heating Degree Days 8    
Growing Degree Days 8 (Base 50)    
Moisture  
Dew Point 46 °F    
Average Humidity 68    
Maximum Humidity 100    
Minimum Humidity 33    
Precipitation  
Precipitation 0.00 in - - ()
Sea Level Pressure  
Sea Level Pressure 30.18 in    
Wind  
Wind Speed 0 mph (West)    
Max Wind Speed 5 mph    
Max Gust Speed -    
Visibility 10 miles    
Events      
Averages and records for this station are not official NWS values.
T = Trace of Precipitation, MM = Missing Value Source: NWS Daily Summary

Daily Weather History Graph

Daily Weather History Graph

Search for Another Location

Airport or City:

Trip Planner

Search our weather history database for the weather conditions in past years. The results will help you decide how hot, cold, wet, or windy it might be!

Date:

Astronomy

Aug. 14, 2013 Rise Set
Actual Time 6:11 AM CDT 8:22 PM CDT
Civil Twilight 5:39 AM CDT 8:55 PM CDT
Nautical Twilight 4:58 AM CDT 9:35 PM CDT
Astronomical Twilight 4:13 AM CDT 10:20 PM CDT
Moon 2:39 PM CDT (8/14) No Moon Set
Length of Visible Light 15h 15m
Length of Day
14h 10m
First Quarter, 53% of the Moon is Illuminated
Aug 14
First Quarter
Aug 20
Full
Aug 28
Last Quarter
Sep 5
New
Sep 12
First Quarter

Hourly Weather History & Observations

Time (CDT) Temp. Dew Point Humidity Pressure Visibility Wind Dir Wind Speed Gust Speed Precip Events Conditions
12:14 AM 51.8 °F 46.4 °F 82% 30.22 in 10.0 mi Calm Calm - N/A   Scattered Clouds
12:34 AM 51.8 °F 46.4 °F 82% 30.22 in 10.0 mi Calm Calm - N/A   Scattered Clouds
12:55 AM 50.0 °F 46.4 °F 87% 30.22 in 10.0 mi Calm Calm - N/A   Scattered Clouds
1:14 AM 50.0 °F 46.4 °F 87% 30.22 in 10.0 mi Calm Calm - N/A   Scattered Clouds
1:34 AM 50.0 °F 46.4 °F 87% 30.22 in 10.0 mi Calm Calm - N/A   Scattered Clouds
1:54 AM 50.0 °F 46.4 °F 87% 30.22 in 10.0 mi Calm Calm - N/A   Scattered Clouds
2:15 AM 48.2 °F 44.6 °F 87% 30.21 in 10.0 mi Calm Calm - N/A   Clear
2:34 AM 46.4 °F 44.6 °F 93% 30.21 in 10.0 mi Calm Calm - N/A   Clear
2:54 AM 46.4 °F 44.6 °F 93% 30.22 in 10.0 mi Calm Calm - N/A   Clear
3:14 AM 44.6 °F 42.8 °F 93% 30.22 in 10.0 mi Calm Calm - N/A   Scattered Clouds
3:34 AM 44.6 °F 42.8 °F 93% 30.22 in 7.0 mi Calm Calm - N/A   Scattered Clouds
3:54 AM 44.6 °F 42.8 °F 93% 30.22 in 10.0 mi Calm Calm - N/A   Scattered Clouds
4:14 AM 44.6 °F 42.8 °F 93% 30.22 in 7.0 mi Calm Calm - N/A   Scattered Clouds
4:34 AM 44.6 °F 44.6 °F 100% 30.22 in 2.5 mi Calm Calm - N/A   Clear
4:55 AM 44.6 °F 44.6 °F 100% 30.22 in 5.0 mi Calm Calm - N/A   Clear
5:14 AM 42.8 °F 42.8 °F 100% 30.22 in 1.5 mi Calm Calm - N/A   Mist
5:35 AM 42.8 °F 42.8 °F 100% 30.22 in 7.0 mi Calm Calm - N/A   Clear
5:54 AM 42.8 °F 41.0 °F 93% 30.22 in 7.0 mi Calm Calm - N/A   Scattered Clouds
6:15 AM 42.8 °F 42.8 °F 100% 30.22 in 10.0 mi Calm Calm - N/A   Mostly Cloudy
6:34 AM 44.6 °F 42.8 °F 93% 30.22 in 10.0 mi Calm Calm - N/A   Mostly Cloudy
6:54 AM 44.6 °F 44.6 °F 100% 30.22 in 10.0 mi Calm Calm - N/A   Overcast
7:15 AM 46.4 °F 46.4 °F 100% 30.22 in 10.0 mi Calm Calm - N/A   Mostly Cloudy
7:34 AM 50.0 °F 50.0 °F 100% 30.22 in 10.0 mi Calm Calm - N/A   Scattered Clouds
7:54 AM 50.0 °F 50.0 °F 100% 30.22 in 10.0 mi Calm Calm - N/A   Scattered Clouds
8:15 AM 53.6 °F 51.8 °F 94% 30.21 in 10.0 mi Calm Calm - N/A   Scattered Clouds
8:34 AM 57.2 °F 48.2 °F 72% 30.21 in 10.0 mi Calm Calm - N/A   Mostly Cloudy
8:55 AM 59.0 °F 48.2 °F 67% 30.22 in 10.0 mi Calm Calm - N/A   Scattered Clouds
9:14 AM 62.6 °F 50.0 °F 63% 30.22 in 10.0 mi Calm Calm - N/A   Clear
9:34 AM 64.4 °F 50.0 °F 59% 30.22 in 10.0 mi Calm Calm - N/A   Clear
9:54 AM 64.4 °F 50.0 °F 59% 30.22 in 10.0 mi Calm Calm - N/A   Clear
10:14 AM 66.2 °F 50.0 °F 56% 30.22 in 10.0 mi Calm Calm - N/A   Clear
10:35 AM 69.8 °F 50.0 °F 49% 30.22 in 10.0 mi Calm Calm - N/A   Clear
10:54 AM 69.8 °F 44.6 °F 40% 30.22 in 10.0 mi SSE 3.5 mph - N/A   Scattered Clouds
11:14 AM 69.8 °F 42.8 °F 38% 30.22 in 10.0 mi Calm Calm - N/A   Scattered Clouds
11:35 AM 69.8 °F 42.8 °F 38% 30.22 in 10.0 mi Calm Calm - N/A   Mostly Cloudy
11:54 AM 69.8 °F 42.8 °F 38% 30.22 in 10.0 mi Calm Calm - N/A   Mostly Cloudy
12:14 PM 71.6 °F 42.8 °F 35% 30.21 in 10.0 mi Calm Calm - N/A   Overcast
12:34 PM 73.4 °F 42.8 °F 33% 30.20 in 10.0 mi West 4.6 mph - N/A   Mostly Cloudy
12:54 PM 71.6 °F 42.8 °F 35% 30.20 in 10.0 mi WSW 3.5 mph - N/A   Mostly Cloudy
1:15 PM 71.6 °F 42.8 °F 35% 30.19 in 10.0 mi WNW 4.6 mph - N/A   Mostly Cloudy
1:34 PM 69.8 °F 44.6 °F 40% 30.19 in 10.0 mi NNW 4.6 mph - N/A   Scattered Clouds
1:55 PM 69.8 °F 42.8 °F 38% 30.18 in 10.0 mi Calm Calm - N/A   Scattered Clouds
2:54 PM 71.6 °F 42.8 °F 35% 30.16 in 10.0 mi Calm Calm - N/A   Scattered Clouds
3:14 PM 71.6 °F 42.8 °F 35% 30.15 in 10.0 mi NW 3.5 mph - N/A   Scattered Clouds
3:34 PM 73.4 °F 42.8 °F 33% 30.15 in 10.0 mi Calm Calm - N/A   Scattered Clouds
3:54 PM 69.8 °F 42.8 °F 38% 30.15 in 10.0 mi Calm Calm - N/A   Scattered Clouds
4:14 PM 69.8 °F 44.6 °F 40% 30.15 in 10.0 mi Calm Calm - N/A   Scattered Clouds
4:34 PM 73.4 °F 44.6 °F 36% 30.14 in 10.0 mi Calm Calm - N/A   Scattered Clouds
4:54 PM 73.4 °F 44.6 °F 36% 30.14 in 10.0 mi Calm Calm - N/A   Mostly Cloudy
5:15 PM 73.4 °F 44.6 °F 36% 30.14 in 10.0 mi Calm Calm - N/A   Mostly Cloudy
5:34 PM 73.4 °F 44.6 °F 36% 30.13 in 10.0 mi Calm Calm - N/A   Scattered Clouds
5:54 PM 71.6 °F 44.6 °F 38% 30.13 in 10.0 mi Calm Calm - N/A   Scattered Clouds
6:14 PM 71.6 °F 44.6 °F 38% 30.13 in 10.0 mi Calm Calm - N/A   Scattered Clouds
6:34 PM 73.4 °F 44.6 °F 36% 30.12 in 10.0 mi West 3.5 mph - N/A   Mostly Cloudy
6:54 PM 71.6 °F 44.6 °F 38% 30.12 in 10.0 mi WSW 3.5 mph - N/A   Scattered Clouds
7:14 PM 69.8 °F 46.4 °F 43% 30.12 in 10.0 mi Calm Calm - N/A   Clear
7:35 PM 68.0 °F 50.0 °F 52% 30.11 in 10.0 mi Calm Calm - N/A   Scattered Clouds
7:54 PM 69.8 °F 50.0 °F 49% 30.11 in 10.0 mi Calm Calm - N/A   Mostly Cloudy
8:15 PM 64.4 °F 51.8 °F 64% 30.11 in 10.0 mi Calm Calm - N/A   Scattered Clouds
8:34 PM 59.0 °F 51.8 °F 77% 30.12 in 10.0 mi Calm Calm - N/A   Scattered Clouds
8:54 PM 59.0 °F 50.0 °F 72% 30.12 in 10.0 mi Calm Calm - N/A   Scattered Clouds
9:15 PM 57.2 °F 50.0 °F 77% 30.12 in 10.0 mi Calm Calm - N/A   Clear
9:34 PM 55.4 °F 50.0 °F 82% 30.12 in 10.0 mi Calm Calm - N/A   Scattered Clouds
9:55 PM 55.4 °F 50.0 °F 82% 30.12 in 10.0 mi Calm Calm - N/A   Mostly Cloudy
10:14 PM 55.4 °F 50.0 °F 82% 30.12 in 10.0 mi Calm Calm - N/A   Mostly Cloudy
10:34 PM 55.4 °F 51.8 °F 88% 30.13 in 10.0 mi Calm Calm - N/A   Mostly Cloudy
10:55 PM 55.4 °F 51.8 °F 88% 30.13 in 10.0 mi Calm Calm - N/A   Mostly Cloudy
11:14 PM 55.4 °F 51.8 °F 88% 30.13 in 10.0 mi Calm Calm - N/A   Mostly Cloudy
11:35 PM 53.6 °F 50.0 °F 88% 30.13 in 10.0 mi Calm Calm - N/A   Mostly Cloudy
11:54 PM 53.6 °F 50.0 °F 88% 30.13 in 10.0 mi Calm Calm - N/A   Mostly Cloudy